Mount Shasta, CA

4:34 AM PDT on March 29, 2017 (GMT -0700)
Mount Shasta

Weather History for KMHS - September, 2013

Change the Weather History Date:

Friday, September 20, 2013

  Actual Average Record
Temperature  
Mean Temperature 58 °F 60 °F  
Max Temperature 76 °F 77 °F 93 °F (1952)
Min Temperature 39 °F 42 °F 31 °F (1972)
Degree Days  
Heating Degree Days 7 6  
Month to date heating degree days 36 88  
Since 1 July heating degree days 48 163  
Cooling Degree Days 0 1  
Month to date cooling degree days 47 21  
Year to date cooling degree days 474 281  
Growing Degree Days 6 (Base 50)    
Moisture  
Dew Point 40 °F    
Average Humidity 62    
Maximum Humidity 96    
Minimum Humidity 23    
Precipitation  
Precipitation 0.35 in 0.02 in 0.35 in (2013)
Month to date precipitation 0.39 0.40  
Year to date precipitation 7.57 27.73  
Sea Level Pressure  
Sea Level Pressure 29.80 in    
Wind  
Wind Speed 1 mph (East)    
Max Wind Speed 8 mph    
Max Gust Speed 21 mph    
Visibility 9 miles    
Events Rain    
T = Trace of Precipitation, MM = Missing Value Source: NWS Daily Summary

Daily Weather History Graph

Daily Weather History Graph

Search for Another Location

Airport or City:

Trip Planner

Search our weather history database for the weather conditions in past years. The results will help you decide how hot, cold, wet, or windy it might be!

Date:

Astronomy

Sep. 20, 2013 Rise Set
Actual Time 6:55 AM PDT 7:09 PM PDT
Civil Twilight 6:27 AM PDT 7:36 PM PDT
Nautical Twilight 5:55 AM PDT 8:09 PM PDT
Astronomical Twilight 5:21 AM PDT 8:42 PM PDT
Moon 7:44 PM PDT (9/20) 8:16 AM PDT (9/20)
Length of Visible Light 13h 09m
Length of Day
12h 14m
Full, 98% of the Moon is Illuminated
Sep 20
Full
Sep 26
Last Quarter
Oct 4
New
Oct 11
First Quarter
Oct 18
Full

Hourly Weather History & Observations

Time (PDT) Temp. Dew Point Humidity Pressure Visibility Wind Dir Wind Speed Gust Speed Precip Events Conditions
12:56 AM 45.0 °F 30.0 °F 56% 29.86 in 10.0 mi Calm Calm - N/A   Clear
1:56 AM 45.0 °F 30.0 °F 56% 29.86 in 10.0 mi Calm Calm - N/A   Clear
2:56 AM 43.0 °F 28.0 °F 56% 29.84 in 10.0 mi Calm Calm - N/A   Clear
3:56 AM 41.0 °F 27.0 °F 57% 29.84 in 10.0 mi Calm Calm - N/A   Clear
4:56 AM 43.0 °F 27.0 °F 53% 29.82 in 10.0 mi Calm Calm - N/A   Clear
5:56 AM 39.0 °F 28.9 °F 67% 29.83 in 10.0 mi Calm Calm - N/A   Clear
6:56 AM 39.0 °F 30.9 °F 73% 29.84 in 10.0 mi Calm Calm - N/A   Clear
7:56 AM 48.0 °F 32.0 °F 54% 29.84 in 10.0 mi Calm Calm - N/A   Clear
8:56 AM 64.0 °F 39.0 °F 40% 29.81 in 10.0 mi Calm Calm - N/A   Clear
9:56 AM 66.9 °F 37.9 °F 34% 29.81 in 10.0 mi Calm Calm - N/A   Clear
10:56 AM 71.1 °F 39.9 °F 32% 29.81 in 10.0 mi Calm Calm - N/A   Clear
11:56 AM 72.0 °F 36.0 °F 27% 29.79 in 10.0 mi Variable 5.8 mph - N/A   Clear
12:56 PM 73.9 °F 33.1 °F 22% 29.78 in 10.0 mi Variable 3.5 mph - N/A   Clear
1:56 PM 73.0 °F 34.0 °F 24% 29.76 in 10.0 mi Calm Calm - N/A   Clear
2:56 PM 73.9 °F 35.1 °F 24% 29.76 in 10.0 mi Variable 3.5 mph - N/A   Clear
3:56 PM 70.0 °F 37.0 °F 30% 29.77 in 10.0 mi Calm Calm - N/A   Scattered Clouds
4:56 PM 66.9 °F 37.0 °F 33% 29.76 in 10.0 mi Calm Calm - N/A   Overcast
5:56 PM 64.0 °F 39.0 °F 40% 29.78 in 10.0 mi East 8.1 mph - 0.00 in   Overcast
6:56 PM 62.1 °F 39.9 °F 44% 29.78 in 10.0 mi Calm Calm - N/A   Overcast
7:56 PM 57.0 °F 48.0 °F 72% 29.78 in 10.0 mi Calm Calm - 0.02 in Rain Light Rain
8:25 PM 53.6 °F 51.8 °F 94% 29.79 in 1.8 mi Variable 3.5 mph - 0.05 in Rain Rain
8:33 PM 51.8 °F 48.2 °F 88% 29.77 in 1.2 mi ENE 3.5 mph - 0.22 in Rain Heavy Rain
8:37 PM 51.8 °F 48.2 °F 88% 29.77 in 2.5 mi Calm Calm - 0.22 in Rain Light Rain
8:44 PM 51.8 °F 48.2 °F 88% 29.77 in 9.0 mi Variable 6.9 mph - 0.23 in Rain Rain
8:56 PM 53.1 °F 50.0 °F 89% 29.79 in 9.0 mi Calm Calm - 0.24 in Rain Light Rain
9:56 PM 52.0 °F 50.0 °F 93% 29.77 in 7.0 mi Calm Calm - 0.09 in Rain Light Rain
10:15 PM 51.8 °F 50.0 °F 94% 29.79 in 10.0 mi Calm Calm - 0.00 in   Overcast
10:42 PM 51.8 °F 50.0 °F 94% 29.79 in 10.0 mi Calm Calm - 0.00 in   Overcast
10:54 PM 51.8 °F 50.0 °F 94% 29.78 in 10.0 mi Calm Calm - 0.00 in   Mostly Cloudy
10:56 PM 52.0 °F 48.9 °F 89% 29.77 in 10.0 mi Calm Calm - 0.00 in   Mostly Cloudy
11:32 PM 51.8 °F 48.2 °F 88% 29.79 in 10.0 mi Calm Calm - N/A   Overcast
11:56 PM 52.0 °F 48.9 °F 89% 29.78 in 10.0 mi Calm Calm - N/A   Overcast